Wind_Speed
24 23 22 20 20 19 16 14 14 17 18 20 20 20 21 22 23 23 23 23 23 22 22 21 20 20 19 19 19 19 17 18 18 18 19 20 21 23 25 27 29 30 31
25 24 22 20 19 17 16 17 17 20 21 22 24 25 26 26 27 27 28 27 26 25 25 25 23 22 22 22 22 21 20 20 20 20 21 21 22 23 25 26 28 30 32
26 26 25 22 20 20 19 19 21 22 24 26 28 28 29 29 29 30 30 30 29 28 27 27 26 24 25 25 24 24 24 24 24 24 24 25 25 27 28 28 30 33 35
27 27 27 25 23 23 24 24 26 27 30 30 29 30 31 32 32 31 31 32 32 30 29 29 28 28 28 28 27 27 27 27 28 28 29 30 30 31 31 33 35 37 39
29 29 28 28 28 28 28 29 30 32 33 33 34 35 35 35 34 34 35 34 33 32 32 31 30 30 30 29 30 30 30 31 32 32 33 34 35 35 36 38 40 42 44
29 30 30 31 31 31 32 33 35 35 36 38 39 38 38 37 37 37 36 35 34 33 33 32 32 32 31 32 32 33 34 35 36 37 38 39 39 40 42 43 45 47 49
33 33 34 33 34 35 36 37 38 39 40 41 41 40 39 38 37 37 35 35 35 34 34 34 34 34 34 35 35 36 37 38 40 41 42 43 44 45 47 48 49 51 54
35 35 35 36 37 38 40 40 42 43 44 43 42 41 40 39 38 37 37 36 36 35 35 35 36 37 37 38 39 40 41 42 44 45 46 48 49 49 51 52 53 55 57
37 36 37 38 40 41 43 44 45 46 45 44 43 42 41 39 38 37 37 37 37 37 38 39 40 40 40 41 43 44 45 46 48 49 50 51 52 53 54 55 56 57 58
39 39 39 39 42 44 45 47 47 47 46 44 43 42 40 40 40 40 40 40 41 41 42 43 43 44 44 45 47 48 50 51 51 52 53 54 55 56 57 57 58 59 60
38 39 40 42 43 45 46 47 46 46 45 44 43 42 41 42 42 43 44 44 45 45 46 46 47 48 49 50 52 53 54 54 55 56 56 56 57 58 58 59 59 60 61
39 40 42 44 45 45 45 45 45 44 44 43 43 43 44 44 45 46 47 47 48 49 50 51 52 53 55 56 56 56 57 57 58 58 58 58 58 59 59 59 60 60 61
39 41 43 45 46 46 45 44 43 43 44 44 45 46 47 48 48 49 50 52 53 54 55 57 58 58 59 59 59 59 60 60 59 59 58 58 59 59 59 60 60 59 59
38 40 41 42 43 44 45 44 44 45 45 46 47 49 50 51 52 53 55 56 57 58 59 61 61 61 61 60 60 60 59 58 58 58 59 59 59 59 59 58 58 57 57
33 37 38 38 39 40 41 42 44 46 46 47 48 50 52 53 54 55 56 57 58 60 61 61 60 59 59 58 58 58 58 57 58 58 59 59 58 57 57 56 56 55 54
33 33 33 35 37 37 39 41 43 45 46 47 48 50 52 53 54 56 56 56 56 56 57 57 57 57 57 56 56 57 57 57 57 57 57 56 56 55 55 54 53 52 51
32 32 32 33 34 36 37 37 37 38 41 44 46 47 49 51 52 52 52 52 52 52 53 53 54 55 55 56 56 56 56 55 55 54 54 54 54 53 51 50 49 48 47
32 32 32 32 33 34 34 35 37 38 38 40 42 44 46 48 48 49 49 49 49 49 50 51 51 52 53 54 53 53 53 53 52 52 51 50 49 47 45 44 44 43 41
28 29 29 29 30 31 33 34 36 37 39 40 41 42 43 45 45 45 46 47 47 47 48 49 50 50 51 51 51 51 50 49 49 47 45 43 41 40 39 38 36 35 33
26 27 27 28 29 31 32 34 35 36 36 37 38 39 40 41 42 43 44 44 45 45 46 46 46 47 47 47 47 46 45 44 42 40 38 37 35 34 32 29 27 25 23
23 24 25 26 28 29 30 31 32 33 34 34 35 36 37 38 39 40 41 42 42 43 43 43 43 43 43 43 42 41 40 37 35 33 31 30 28 25 22 19 17 16 15
20 22 23 24 25 27 27 28 29 30 30 31 32 34 35 36 36 37 38 38 38 38 38 38 38 37 37 36 36 34 32 30 27 25 23 20 17 14 12 10 9 9 10
19 20 21 22 23 24 25 26 27 27 28 29 30 31 31 32 32 33 33 33 33 32 32 31 30 29 29 28 27 25 22 20 17 15 12 10 8 6 4 4 5 6 8
17 18 20 20 22 23 23 24 24 24 25 25 26 27 27 28 28 28 27 27 27 26 25 24 22 21 20 18 16 13 11 8 6 4 2 1 2 3 4 5 6 8 9
16 17 18 19 20 20 20 21 21 21 22 23 24 24 24 24 24 23 22 21 20 20 19 18 16 15 13 11 8 5 3 2 4 5 6 7 7 7 8 9 10 11 12
15 16 17 17 18 18 18 18 19 19 20 21 21 20 20 20 20 19 19 18 17 16 15 14 13 12 10 7 5 5 6 8 10 11 11 11 11 11 12 12 12 13 13
Wind_Direction
248 253 254 247 239 233 239 247 259 271 279 286 291 294 297 297 297 294 292 293 293 296 299 304 306 307 309 312 313 312 311 311 310 308 302 296 292 288 284 283 280 279 278
249 254 254 255 250 247 249 255 265 273 277 282 288 291 293 295 295 294 292 293 294 296 296 297 300 301 302 304 305 303 303 303 304 305 304 300 295 290 287 285 283 281 281
248 253 261 263 267 263 263 269 269 273 278 278 281 285 287 291 291 291 291 291 292 292 293 296 297 297 298 299 298 295 296 296 297 298 297 298 296 292 289 287 286 285 284
251 257 263 268 271 273 274 279 277 281 281 278 280 283 285 289 289 289 289 289 290 290 292 295 296 297 296 296 294 291 291 292 293 294 294 294 294 292 290 289 288 286 285
253 259 265 270 273 276 278 281 283 284 285 285 285 287 288 288 290 289 289 289 289 291 292 293 294 294 294 293 292 291 290 290 291 291 292 292 292 291 289 288 288 287 285
253 259 264 268 271 274 276 279 281 283 286 287 285 287 288 288 288 287 287 288 290 290 289 290 291 291 292 291 290 290 289 290 290 290 290 290 290 290 288 287 287 286 285
253 259 263 266 268 270 273 277 279 282 285 287 286 286 285 284 285 285 285 286 287 287 287 288 289 291 292 291 290 289 289 290 290 289 289 289 288 288 287 286 286 285 285
251 255 259 263 266 268 270 273 277 281 284 286 285 283 283 283 282 282 283 285 285 285 287 288 290 292 292 291 290 291 291 290 289 289 288 288 288 287 287 286 286 286 286
248 252 256 260 264 267 270 273 277 280 282 282 282 281 281 281 282 283 285 286 286 286 288 290 292 292 291 291 291 291 291 290 289 289 289 288 288 288 289 288 287 286 286
247 252 256 260 263 266 269 272 275 277 279 279 279 279 279 280 281 283 284 285 286 287 289 291 291 291 291 291 291 290 290 291 290 290 289 289 289 289 290 290 289 289 289
247 252 256 259 261 264 267 270 272 274 275 276 277 277 278 280 281 282 284 285 287 289 289 290 290 290 290 290 290 290 291 291 290 290 290 290 290 290 291 292 292 291 291
248 252 255 257 259 261 263 266 267 269 271 273 275 276 277 279 280 282 284 285 286 287 288 288 288 289 289 290 290 290 290 290 290 290 291 291 292 292 292 292 292 292 292
251 252 254 255 257 259 260 261 263 265 268 270 272 273 275 278 279 281 282 283 284 286 286 287 287 288 288 289 290 290 290 290 290 291 292 292 292 292 293 292 293 293 293
254 254 255 254 256 257 258 258 260 262 264 267 269 271 274 277 279 280 281 282 283 284 285 285 286 287 288 288 289 289 289 289 290 291 292 292 292 292 292 293 293 294 294
257 256 257 258 260 259 259 261 262 262 263 266 269 272 274 276 277 279 280 281 281 282 284 285 286 286 287 287 288 288 289 290 290 291 291 291 291 292 292 293 293 294 294
262 263 266 268 269 267 267 266 266 266 267 269 271 273 275 277 278 279 280 282 282 282 283 285 287 287 287 288 288 289 290 290 290 290 290 290 291 291 292 292 293 294 294
270 273 277 277 276 275 273 273 273 274 274 274 275 276 277 277 278 279 280 282 284 286 287 288 289 289 289 289 289 289 289 288 288 288 289 290 290 291 292 292 292 294 295
282 283 283 285 284 282 279 277 279 280 279 278 278 278 278 280 281 284 286 287 288 288 289 289 288 288 288 288 287 287 287 287 287 288 289 290 290 290 290 291 293 294 296
287 289 289 288 287 285 284 282 282 282 282 283 284 285 286 288 289 290 290 291 290 290 289 289 289 288 287 287 287 287 288 288 289 290 291 290 290 290 290 291 292 295 298
289 289 288 288 287 285 284 285 287 287 287 288 289 291 292 292 291 291 291 291 290 290 290 290 289 289 289 289 289 289 289 290 290 290 290 290 290 290 291 291 292 296 299
289 289 289 289 289 289 290 291 292 293 294 294 295 296 295 295 294 293 292 292 292 292 291 291 291 291 290 290 290 290 289 289 288 288 289 290 291 291 291 292 295 299 307
293 294 294 293 294 294 294 295 296 298 299 299 299 299 298 297 296 295 295 295 295 295 294 294 294 293 292 291 290 289 289 287 287 288 289 290 291 291 294 299 306 316 327
298 298 298 298 298 298 299 300 301 302 303 303 304 303 302 301 300 299 299 299 299 299 300 299 299 298 298 296 295 293 291 289 288 286 287 289 293 301 314 327 342 353 357
303 303 304 304 305 304 305 305 306 308 309 310 311 311 309 308 308 307 307 306 306 306 308 308 308 308 308 307 305 302 299 296 295 294 302 360 61 64 53 45 38 30 22
309 310 310 310 310 310 311 313 314 315 316 317 318 319 318 318 318 318 317 317 318 319 319 320 320 322 323 326 331 339 3 48 75 88 92 93 88 79 71 62 52 43 36
318 318 317 318 318 318 319 321 321 322 324 325 326 326 326 325 327 328 329 330 330 332 333 335 336 339 343 353 19 54 77 89 94 96 96 92 86 80 73 65 56 47 39
Height
5864 5866 5868 5869 5870 5872 5873 5873 5875 5876 5875 5874 5874 5874 5873 5873 5873 5872 5870 5868 5867 5865 5864 5864 5862 5860 5859 5857 5855 5853 5851 5849 5847 5845 5842 5840 5837 5835 5832 5830 5827 5826 5824
5859 5862 5863 5864 5865 5867 5869 5868 5870 5872 5871 5869 5868 5867 5867 5866 5865 5864 5862 5861 5860 5859 5859 5857 5856 5855 5853 5852 5850 5848 5846 5844 5842 5840 5838 5835 5833 5830 5827 5824 5821 5819 5817
5856 5858 5860 5861 5862 5863 5863 5864 5866 5865 5865 5864 5862 5861 5860 5859 5858 5857 5856 5854 5853 5852 5852 5851 5850 5848 5847 5845 5844 5842 5841 5839 5837 5835 5833 5830 5827 5824 5821 5818 5815 5812 5809
5851 5853 5855 5857 5859 5859 5860 5860 5859 5859 5859 5856 5854 5853 5853 5852 5851 5850 5849 5848 5847 5845 5844 5843 5842 5841 5840 5839 5837 5836 5834 5832 5830 5828 5825 5823 5820 5817 5814 5810 5807 5803 5799
5846 5849 5851 5852 5853 5854 5854 5855 5854 5853 5851 5848 5849 5848 5846 5846 5845 5843 5842 5840 5839 5838 5837 5836 5835 5834 5833 5831 5829 5828 5826 5824 5822 5820 5817 5814 5812 5809 5805 5802 5798 5793 5789
5841 5842 5844 5846 5847 5847 5848 5847 5846 5845 5843 5842 5841 5840 5840 5839 5838 5836 5834 5833 5831 5830 5829 5828 5827 5826 5825 5823 5821 5819 5818 5816 5813 5810 5807 5805 5802 5799 5795 5791 5787 5782 5777
5836 5837 5838 5839 5840 5840 5840 5840 5838 5837 5836 5835 5834 5833 5832 5830 5829 5828 5826 5825 5824 5822 5821 5820 5819 5817 5816 5814 5812 5810 5808 5805 5803 5800 5797 5793 5790 5787 5783 5779 5775 5770 5765
5829 5830 5830 5831 5832 5833 5833 5832 5831 5830 5829 5827 5826 5825 5824 5822 5821 5820 5819 5817 5816 5814 5812 5811 5809 5808 5806 5804 5802 5799 5797 5794 5791 5788 5784 5781 5777 5774 5770 5766 5761 5756 5751
5823 5823 5824 5824 5824 5824 5823 5823 5822 5821 5820 5819 5818 5816 5815 5814 5813 5811 5810 5808 5807 5805 5803 5801 5800 5797 5795 5793 5790 5788 5785 5782 5778 5775 5771 5767 5763 5759 5755 5750 5746 5742 5737
5815 5815 5816 5816 5816 5815 5815 5814 5813 5812 5811 5810 5809 5808 5806 5805 5804 5802 5801 5799 5797 5795 5793 5791 5789 5786 5784 5781 5778 5775 5771 5768 5764 5761 5757 5753 5748 5744 5739 5734 5729 5725 5720
5805 5806 5807 5807 5807 5807 5807 5806 5805 5804 5802 5801 5800 5799 5798 5796 5795 5793 5791 5789 5787 5785 5782 5780 5777 5774 5771 5768 5765 5761 5758 5754 5750 5746 5742 5738 5733 5728 5723 5718 5712 5707 5702
5795 5796 5797 5798 5798 5798 5798 5797 5797 5796 5794 5793 5792 5790 5789 5787 5785 5783 5781 5778 5776 5773 5771 5768 5764 5761 5757 5754 5750 5747 5743 5739 5735 5731 5727 5723 5718 5712 5707 5702 5696 5690 5684
5786 5786 5787 5788 5788 5788 5788 5787 5787 5787 5786 5784 5783 5781 5779 5777 5775 5772 5770 5767 5764 5761 5758 5755 5751 5747 5743 5740 5736 5733 5729 5725 5720 5716 5711 5707 5702 5696 5691 5686 5680 5674 5668
5776 5776 5776 5776 5777 5777 5777 5777 5777 5776 5775 5774 5773 5771 5769 5766 5764 5761 5758 5755 5752 5748 5745 5741 5737 5733 5729 5725 5721 5718 5713 5709 5705 5700 5696 5691 5686 5681 5675 5670 5665 5659 5654
5767 5767 5767 5766 5766 5766 5767 5767 5766 5766 5765 5763 5762 5760 5758 5755 5752 5749 5745 5742 5739 5735 5731 5726 5722 5718 5714 5710 5706 5702 5698 5693 5689 5684 5680 5675 5670 5665 5660 5655 5650 5645 5640
5760 5758 5758 5757 5757 5756 5757 5756 5756 5755 5754 5752 5751 5748 5746 5743 5739 5736 5733 5729 5725 5721 5717 5713 5708 5704 5700 5695 5691 5686 5682 5677 5673 5668 5664 5659 5655 5650 5646 5641 5636 5632 5628
5751 5750 5749 5749 5749 5748 5747 5746 5745 5743 5742 5740 5738 5736 5733 5730 5726 5723 5719 5715 5711 5707 5703 5698 5694 5689 5685 5680 5675 5671 5666 5662 5657 5653 5649 5644 5640 5636 5632 5627 5623 5619 5615
5743 5742 5742 5741 5740 5739 5738 5737 5735 5733 5731 5728 5726 5723 5720 5716 5713 5709 5705 5701 5698 5693 5688 5683 5678 5673 5669 5664 5660 5655 5651 5646 5642 5638 5634 5630 5626 5623 5620 5616 5612 5609 5605
5736 5735 5734 5733 5732 5730 5729 5727 5725 5723 5720 5717 5714 5711 5707 5704 5700 5696 5692 5688 5683 5679 5674 5669 5664 5658 5653 5649 5644 5640 5636 5632 5628 5625 5621 5618 5614 5611 5609 5606 5603 5600 5597
5729 5728 5727 5725 5724 5722 5720 5718 5715 5713 5710 5707 5703 5699 5695 5692 5688 5683 5679 5674 5670 5665 5660 5655 5650 5644 5639 5634 5630 5626 5622 5618 5615 5612 5610 5607 5604 5602 5600 5598 5596 5594 5591
5723 5721 5719 5718 5716 5714 5712 5709 5706 5703 5700 5697 5693 5689 5684 5680 5675 5671 5666 5662 5657 5652 5647 5642 5637 5631 5626 5621 5617 5613 5610 5608 5605 5602 5600 5599 5597 5595 5594 5592 5591 5590 5587
5717 5715 5713 5711 5709 5707 5704 5701 5698 5694 5691 5687 5683 5679 5674 5669 5664 5659 5654 5650 5644 5639 5635 5630 5625 5619 5614 5610 5606 5602 5600 5598 5596 5595 5594 5592 5591 5591 5590 5589 5588 5587 5585
5711 5709 5707 5705 5702 5700 5697 5693 5690 5687 5683 5679 5674 5669 5664 5659 5654 5649 5644 5639 5634 5629 5625 5620 5615 5610 5605 5601 5597 5594 5592 5591 5590 5590 5589 5589 5589 5589 5588 5588 5587 5586 5584
5705 5703 5701 5698 5696 5693 5690 5687 5683 5679 5675 5671 5666 5661 5656 5651 5646 5641 5636 5631 5626 5622 5617 5612 5608 5604 5599 5595 5592 5590 5588 5587 5587 5587 5588 5588 5588 5589 5589 5588 5587 5586 5584
5701 5698 5696 5693 5690 5687 5684 5680 5676 5673 5669 5664 5660 5654 5649 5644 5639 5634 5630 5625 5621 5616 5612 5608 5604 5600 5597 5593 5590 5588 5588 5587 5588 5588 5589 5589 5590 5590 5590 5589 5588 5587 5585
5696 5694 5691 5688 5685 5682 5678 5675 5671 5668 5664 5659 5654 5649 5645 5640 5635 5631 5626 5622 5618 5613 5609 5606 5602 5599 5596 5593 5591 5590 5589 5589 5590 5591 5591 5592 5592 5592 5592 5591 5590 5588 5586